Terminal Aerodrome Forecast
Issued by NWS

Home | Current Version | Previous Version | Text Only | Print | Product List | Glossary Off
Versions: 1 2 3 4 5 6 7 8 9 10 11 12 13 14 15 16 17 18 19 20

000
FTUS43 KTOP 151700
TAFFOE
TAF
KFOE 151732Z 1518/1618 19009KT P6SM SKC
     FM160400 18017G24KT P6SM BKN200
     FM161300 20022G32KT P6SM BKN200=

USA.gov is the U.S. government's official web portal to all federal, state and local government web resources and services.